#timestamp,LO_Frequency,Hit,StdDev 
1456102815.5,286046996.9,N
1456102835.4,286046997.8,N
1456102855.2,286046998.0,N
1456102875.0,286046995.8,N
1456102875.9,286046995.8,N
1456102895.8,286046997.9,N
1456102915.6,286046999.6,N
1456102935.4,286046995.2,N
1456102955.3,286046993.8,Y
1456102975.1,286046994.1,P
1456102995.8,286046995.9,N
1456103015.7,286046996.3,N
1456103035.5,286046990.6,Y
1456103055.3,286046996.2,P
1456103075.2,286046991.8,P
1456103095.9,286046993.6,P
1456103115.7,286046995.7,N
1456103135.6,286046994.2,Y
1456103155.4,286046998.8,P
1456103175.2,286046998.4,N
1456103195.1,286046998.3,N
1456103196.0,286046998.3,N
1456103215.8,286046999.4,N
1456103235.6,286046998.7,N
1456103255.5,286047002.2,N
1456103275.3,286046999.8,N
1456103295.1,286046998.5,N
1456103315.9,286047000.3,N
1456103335.7,286047002.8,N
1456103355.5,286047001.2,N
1456103375.3,286047001.1,N
1456103395.2,286047000.9,N
1456103415.0,286047002.7,N
1456103415.9,286047002.7,N
1456103435.7,286047001.7,N
1456103455.6,286047005.1,N
1456103475.4,286047002.9,N
1456103495.2,286047005.1,N
1456103515.1,286047005.0,N
1456103516.0,286047005.0,N
1456103535.8,286047007.6,N
1456103555.6,286047006.5,N
1456103575.5,286047006.4,N
1456103595.3,286047009.0,N
1456103615.1,286047006.9,N
1456103635.9,286047006.2,N
1456103655.7,286047006.3,N
1456103675.5,286047009.6,N
1456103695.4,286047013.4,Y
1456103715.2,286047011.6,P
1456103735.0,286047009.8,N
1456103735.9,286047009.8,N
1456103755.8,286047011.7,Y
1456103775.6,286046999.7,P
1456103795.4,286047001.3,N
1456103815.3,286047002.1,N
1456103835.1,286047004.2,N
1456103836.0,286047004.2,N
1456103855.8,286047005.9,N
1456103875.6,286047003.0,N
1456103895.5,286047005.2,N
1456103915.3,286047003.4,N
1456103935.1,286047003.2,N
1456103955.9,286047001.4,N
1456103975.7,286047006.0,N
1456103995.5,286047007.4,Y
1456104015.4,286047004.1,P
1456104035.2,286047002.7,P
1456104055.0,286047001.8,P
1456104055.9,286047001.8,N
1456104075.8,286047004.3,Y
1456104095.6,286046999.9,P
1456104115.4,286047001.7,N
1456104135.3,286047002.1,N
1456104155.1,286047001.4,N
1456104175.8,286047002.1,N
1456104195.7,286046999.8,N
1456104215.5,286047002.6,N
1456104235.3,286047003.6,Y
1456104255.2,286047003.1,P
1456104275.9,286047004.7,P
1456104295.7,286047004.0,P
1456104315.6,286047001.9,N
1456104335.4,286047001.6,N
1456104355.2,286047003.3,N
1456104375.1,286047003.8,Y
1456104376.0,286047003.8,P
1456104395.8,286047002.3,P
1456104415.6,286047002.3,P
1456104435.5,286047006.0,Y
1456104455.3,286047002.5,P
1456104475.1,286047000.6,P
1456104495.9,286046999.4,N
1456104515.7,286046996.6,N
1456104535.5,286046998.8,N
1456104555.4,286046998.9,N
1456104575.2,286046998.4,N
1456104595.0,286046999.1,N
1456104595.9,286046999.1,N
1456104615.7,286046999.1,N
1456104635.6,286046999.1,N
1456104655.4,286047000.4,N
1456104675.2,286047000.4,N
1456104695.1,286047000.8,N
1456104696.0,286047000.8,N
1456104715.8,286047002.6,N
1456104735.6,286047001.2,N
1456104755.5,286046998.4,N
1456104775.3,286046995.2,Y
1456104795.1,286046992.3,P
1456104815.9,286046996.4,N
1456104835.7,286046994.5,N
1456104855.5,286046995.7,N
1456104875.4,286046994.5,N
1456104895.2,286046990.5,Y
1456104915.0,286046997.9,P
1456104915.9,286046997.9,N
1456104935.8,286046997.6,N
1456104955.6,286046994.6,Y
1456104975.4,286046995.8,P
1456104995.3,286046994.1,P
1456105015.1,286046991.8,P
1456105035.8,286046994.3,N
1456105055.7,286046994.1,Y
1456105075.5,286046999.3,P
1456105095.3,286046997.0,N
1456105115.2,286046994.0,P
1456105135.9,286046991.9,Y
1456105155.7,286046997.1,P
1456105175.6,286046995.5,P
1456105195.4,286046995.9,P
1456105215.2,286046994.1,Y
1456105235.1,286046997.4,P
1456105236.0,286046997.4,P
1456105255.8,286046998.8,N
1456105275.6,286047001.1,N
1456105295.5,286047000.3,N
1456105315.3,286047000.4,N
1456105335.1,286047000.2,N
1456105355.9,286046996.5,N
1456105375.7,286047000.7,N
1456105395.5,286047001.4,N
1456105415.4,286047000.2,N
1456105435.2,286047001.3,N
1456105455.0,286047002.9,N
1456105455.9,286047002.9,N
1456105475.7,286047003.3,N
1456105495.6,286047004.4,N
1456105515.4,286047003.8,N
1456105535.2,286047005.3,N
1456105555.1,286047003.4,N
1456105556.0,286047003.4,N
1456105575.8,286047001.6,N
1456105595.6,286046998.5,N
1456105615.5,286046995.8,N
1456105635.3,286046995.8,N
1456105655.1,286046995.1,N
1456105675.9,286046995.7,N
1456105695.7,286046995.7,N
1456105715.5,286046993.9,N
1456105735.3,286046993.4,N
1456105755.2,286046995.0,N
1456105775.0,286046995.5,N
1456105775.9,286046995.5,N
1456105795.7,286046997.1,N
1456105815.6,286046994.9,N
1456105835.4,286046996.2,N
1456105855.2,286046993.7,N
1456105875.1,286046992.6,N
1456105876.0,286046992.6,N
1456105895.8,286046994.2,N
1456105915.6,286046993.5,N
1456105935.5,286046988.9,N
1456105955.3,286046988.8,N
1456105975.1,286046992.1,N
1456105995.9,286046996.4,N
1456106015.7,286046993.9,N
1456106035.5,286046994.5,N
1456106055.4,286046993.8,N
1456106075.2,286046995.3,N
1456106095.0,286046997.5,N
1456106095.9,286046997.5,N
1456106115.8,286046997.1,N
1456106135.6,286046996.9,N
1456106155.4,286046998.0,N
1456106175.2,286046995.7,N
1456106195.1,286046993.5,N
1456106196.0,286046993.5,N
1456106215.8,286046994.3,N
1456106235.7,286046992.6,Y
1456106255.5,286046997.1,P
1456106275.3,286046997.0,N
1456106295.1,286046998.0,N
1456106315.9,286046995.1,Y
1456106335.7,286047001.0,P
1456106355.5,286047000.9,N
1456106375.4,286047003.6,N
1456106395.2,286047001.7,N
